[[{"header":{"parameterUnit":"m.s-1","parameterCategory":1,"la1":30.2991,"la2":30.254,"lo1":-89.0895,"lo2":-89.0444,"dy":0.0017,"dx":0.0017,"nx":28,"ny":28,"refTime":"2025-08-07T21:00:00:Z","depth":0,"parameterNumber":2,"parameterNumberName":"U-component_of_WINDS"},"data":[0,0,0,0,0,0,0,0,0,0,0,0,0,0,0,0,0,0,0,0,0,0,0,0,0,0,0,0,0,0,0,0,0,0,0,0,0,0,0,0,0,0,0,0,0,0,0,0,0,0,0,0,0,0,0,0,0,0,-4.1853,-4.1853,0,-4.1878,-4.1878,-4.1879,-4.1772,-4.1769,-4.1766,-4.1763,-4.179,-4.1793,-4.1797,0,0,0,0,0,0,0,0,0,0,0,0,0,-4.1715,-4.1719,-4.1853,-4.1853,-4.1854,-4.1878,-4.1878,-4.1879,-4.1773,-4.1769,-4.1765,-4.1762,-4.1789,-4.1793,-4.1797,0,0,0,0,0,0,0,0,0,0,0,0,0,-4.1761,-4.172,-4.1853,-4.1804,-4.18,-4.1878,-4.1878,-4.1879,-4.1774,-4.1769,-4.1764,-4.176,-4.1787,-4.1792,-4.1798,-4.1925,0,0,-4.1814,-4.1817,0,0,0,0,0,0,0,0,-4.1759,-4.1767,-4.1811,-4.1807,-4.1803,-4.1817,-4.1839,-4.1894,-4.1775,-4.1784,-4.1763,-4.1758,-4.1803,-4.1807,-4.1822,-4.1926,-4.1927,-4.1815,-4.1818,-4.1821,-4.1822,0,0,0,0,0,0,0,-4.1756,-4.1765,-4.1863,-4.1812,-4.1807,-4.1781,-4.1782,-4.1849,-4.1819,-4.1782,-4.1775,-4.1779,-4.18,-4.1817,-4.1821,-4.1928,-4.1815,-4.182,-4.1823,-4.1825,-4.2138,-4.2143,0,0,0,0,0,0,-4.1759,-4.1763,-4.1862,-4.1864,-4.1769,-4.1787,-4.1789,-4.1817,-4.1818,-4.1814,-4.1783,-4.1774,-4.181,-4.1815,-4.1822,-4.1971,-4.182,-4.1826,-4.1829,-4.2133,-4.2139,-4.2145,0,0,0,0,0,0,-4.1756,-4.1769,-4.1861,-4.1811,-4.1821,-4.1795,-4.1828,-4.182,-4.1837,-4.1819,-4.1813,-4.1806,-4.1806,-4.1814,-4.19,-4.1971,-4.1828,-4.1833,-4.2127,-4.2135,-4.2142,-4.2271,0,0,0,0,0,0,-4.1753,-4.1769,-4.1816,-4.1813,-4.1824,-4.1939,-4.1832,-4.1824,-4.1847,-4.1835,-4.1838,-4.1834,-4.1803,-4.1893,-4.1906,-4.1976,-4.1837,-4.2121,-4.2131,-4.214,-4.226,-4.2282,-4.23,0,0,0,0,0,-4.1748,-4.1852,-4.1819,-4.1832,-4.1883,-4.1943,-4.1949,-4.1911,-4.1853,-4.1901,-4.1889,-4.1834,-4.1961,-4.1902,-4.1916,-4.1989,-4.2116,-4.2128,-4.2139,-4.2251,-4.2278,-4.23,0,0,0,0,0,0,-4.1864,-4.185,-4.1814,-4.1919,-4.1933,-4.1925,-4.1984,-4.194,-4.1971,-4.1959,-4.191,-4.1912,-4.2007,-4.2006,-4.1941,-4.2112,-4.2029,-4.2043,-4.2109,-4.2134,-4.2154,-4.2152,-4.1842,0,0,0,0,0,-4.1902,-4.1951,-4.1937,-4.2031,-4.204,-4.2011,-4.2036,-4.2005,-4.2018,-4.2023,-4.2017,-4.2032,-4.2075,-4.2104,-4.2143,-4.2259,-4.2259,-4.2316,-4.2336,-4.2353,-4.2366,-4.2429,-4.2454,-4.2182,-4.2182,-4.2182,0,0,-4.198,-4.1979,-4.2013,-4.2054,-4.2061,-4.2114,-4.2017,-4.2077,-4.2116,-4.2032,-4.2113,-4.211,-4.2123,-4.2225,-4.2269,-4.2227,-4.2441,-4.2368,-4.2381,-4.2385,-4.2443,-4.2469,-4.2492,-4.219,-4.2189,-4.2188,0,0,-4.215,-4.2154,-4.2233,-4.2242,-4.2254,-4.2234,-4.2254,-4.2253,-4.2247,-4.2327,-4.2266,-4.2312,-4.2387,-4.2399,-4.2415,-4.259,-4.2542,-4.2604,-4.271,-4.2771,-4.2792,-4.2811,-4.2874,-4.2897,-4.2617,-4.2618,-4.2618,0,-4.2246,-4.2323,-4.2279,-4.2344,-4.2364,-4.229,-4.2371,-4.2382,-4.2406,-4.2422,-4.2374,-4.2467,-4.2471,-4.2575,-4.2618,-4.2633,-4.2654,-4.2604,-4.2793,-4.2811,-4.2828,-4.2888,-4.2912,-4.2625,-4.2625,-4.2624,-4.2623,0,-4.2441,-4.2495,-4.2558,-4.2583,-4.261,-4.2682,-4.265,-4.2683,-4.265,-4.2636,-4.2719,-4.2721,-4.2759,-4.2781,-4.2749,-4.2881,-4.2855,-4.2801,-4.2716,-4.2862,-4.2917,-4.294,-4.2636,-4.2634,-4.2631,-4.2629,0,0,-4.2684,-4.2684,-4.2708,-4.2719,-4.2727,-4.2769,-4.2838,-4.2874,-4.2904,-4.2923,-4.298,-4.3046,-4.2996,-4.3014,-4.2984,-4.3037,-4.3177,-4.2977,-4.2976,-4.3014,-4.3323,-4.3364,-4.3391,-4.3145,-4.3149,-4.3152,-4.3322,0,-4.2851,-4.2969,-4.2932,-4.3051,-4.3101,-4.3032,-4.3092,-4.3104,-4.3093,-4.3134,-4.3122,-4.3169,-4.31,-4.311,-4.3161,-4.315,-4.3239,-4.3137,-4.3198,-4.3201,-4.3197,-4.342,-4.3463,-4.3624,-4.3344,-4.3347,-4.335,0,-4.3062,-4.3089,-4.3214,-4.3214,-4.3233,-4.3288,-4.3319,-4.3359,-4.3372,-4.336,-4.3381,-4.3339,-4.3407,-4.3322,-4.3416,-4.3348,-4.337,-4.3369,-4.3374,-4.3379,-4.3285,-4.3431,-4.3674,-4.3698,-4.3383,-4.3381,-4.3378,0,-4.3228,-4.3296,-4.3379,-4.339,-4.3392,-4.3433,-4.3436,-4.3443,-4.3468,-4.3495,-4.3511,-4.3546,-4.3566,-4.3594,-4.3563,-4.3504,-4.3662,-4.3574,-4.3655,-4.3656,-4.3691,-4.369,-4.3942,-4.3706,-4.3706,-4.3705,-4.3705,0,-4.3418,-4.3497,-4.3454,-4.3505,-4.3591,-4.3548,-4.3635,-4.363,-4.3638,-4.3687,-4.363,-4.3678,-4.3634,-4.3678,-4.3654,-4.3736,-4.3745,-4.3738,-4.3731,-4.3744,-4.3745,-4.3758,-4.3746,-4.3711,-4.371,-4.3709,-4.3708,0,-4.3618,-4.3592,-4.3678,-4.3673,-4.3674,-4.3738,-4.3734,-4.3782,-4.3766,-4.383,-4.3842,-4.3819,-4.3868,-4.3839,-4.389,-4.3874,-4.398,-4.3958,-4.3976,-4.397,-4.4053,-4.4046,-4.4323,-4.4357,-4.4099,-4.4101,-4.4103,0,-4.3742,-4.3801,-4.3802,-4.3831,-4.3838,-4.3885,-4.391,-4.387,-4.3899,-4.3918,-4.3963,-4.4007,-4.404,-4.4122,-4.411,-4.4148,-4.4126,-4.4221,-4.4131,-4.4143,-4.4128,-4.4125,-4.4131,-4.4239,-4.4242,-4.4244,-4.4246,0,-4.3964,-4.3949,-4.3986,-4.4021,-4.4052,-4.4077,-4.4097,-4.4124,-4.4084,-4.412,-4.4169,-4.4195,-4.4246,-4.4291,-4.4323,-4.4326,-4.4281,-4.4274,-4.4295,-4.4309,-4.4317,-4.4314,-4.4026,-4.4268,-4.4266,-4.4264,-4.4263,-4.4262,-4.413,-4.4179,-4.4188,-4.4233,-4.4244,-4.4264,-4.4309,-4.4299,-4.4339,-4.4378,-4.4352,-4.4411,-4.4422,-4.4461,-4.447,-4.4516,-4.4478,-4.4508,-4.4516,-4.4524,-4.4535,-4.431,-4.4522,-4.4521,-4.452,-4.452,-4.4519,0,-4.435,-4.4352,-4.4394,-4.4424,-4.4459,-4.4412,-4.4432,-4.4465,-4.4517,-4.4531,-4.4565,-4.4622,-4.4665,-4.4657,-4.4696,-4.4734,-4.4714,-4.4746,-4.4743,-4.4745,-4.4567,-4.4545,-4.4761,-4.4761,-4.4761,-4.4761,-4.4761,-4.4761,-4.4468,-4.455,-4.4535,-4.4622,-4.4624,-4.468,-4.4696,-4.4715,-4.4726,-4.4792,-4.4828,-4.4822,-4.4827,-4.4866,-4.4904,-4.49,-4.4918,-4.4958,-4.4947,-4.4781,-4.4757,-4.4734,-4.4713,-4.4962,-4.4962,-4.512,-4.5122,-4.5123]},{"header":{"parameterUnit":"m.s-1","parameterCategory":1,"la1":30.2991,"la2":30.254,"lo1":-89.0895,"lo2":-89.0444,"dy":0.0017,"dx":0.0017,"nx":28,"ny":28,"refTime":"2025-08-07T21:00:00:Z","depth":0,"parameterNumber":3,"parameterNumberName":"V-component_of_WINDS"},"data":[0,0,0,0,0,0,0,0,0,0,0,0,0,0,0,0,0,0,0,0,0,0,0,0,0,0,0,0,0,0,0,0,0,0,0,0,0,0,0,0,0,0,0,0,0,0,0,0,0,0,0,0,0,0,0,0,0,0,0.928,0.9282,0,0.941,0.9411,0.9413,0.9525,0.9526,0.9527,0.9528,0.9659,0.9661,0.9663,0,0,0,0,0,0,0,0,0,0,0,0,0,0.9128,0.913,0.928,0.9282,0.9283,0.941,0.9412,0.9413,0.9524,0.9526,0.9528,0.9529,0.9658,0.966,0.9663,0,0,0,0,0,0,0,0,0,0,0,0,0,0.9219,0.9131,0.928,0.9354,0.9362,0.9409,0.9412,0.9414,0.9524,0.9526,0.9528,0.953,0.9657,0.966,0.9664,0.9647,0,0,0.9674,0.9676,0,0,0,0,0,0,0,0,0.9214,0.9225,0.9342,0.9349,0.9358,0.9453,0.9406,0.9492,0.9524,0.9462,0.9528,0.9531,0.9588,0.9598,0.9618,0.9653,0.9659,0.9674,0.9676,0.9678,0.9679,0,0,0,0,0,0,0,0.9207,0.922,0.9331,0.9343,0.9353,0.9381,0.9396,0.9423,0.9513,0.9468,0.9476,0.949,0.9593,0.9614,0.9622,0.9661,0.9674,0.9677,0.9679,0.9681,0.9692,0.969,0,0,0,0,0,0,0.919,0.9214,0.9327,0.9335,0.9289,0.9382,0.9399,0.9421,0.9513,0.9529,0.9489,0.9495,0.9607,0.9617,0.9627,0.9615,0.9678,0.9681,0.9683,0.9693,0.9691,0.9689,0,0,0,0,0,0,0.9186,0.9199,0.9322,0.9277,0.9295,0.9383,0.9406,0.9422,0.9443,0.9529,0.9545,0.9493,0.9609,0.9622,0.9642,0.9621,0.9683,0.9686,0.9695,0.9693,0.969,0.959,0,0,0,0,0,0,0.9181,0.9197,0.9191,0.9276,0.9297,0.9335,0.9405,0.9423,0.9449,0.9459,0.9538,0.9553,0.9612,0.9636,0.9645,0.9627,0.9688,0.9698,0.9694,0.9691,0.9595,0.9584,0.9574,0,0,0,0,0,0.9175,0.9157,0.919,0.9204,0.9292,0.9333,0.9345,0.9415,0.9447,0.9442,0.9498,0.955,0.9622,0.9637,0.9648,0.9631,0.9699,0.9695,0.9691,0.96,0.9586,0.9575,0,0,0,0,0,0,0.9066,0.9169,0.9208,0.9216,0.9265,0.9352,0.9348,0.9397,0.9438,0.9445,0.9529,0.9545,0.9556,0.9596,0.9611,0.9621,0.9668,0.9666,0.9595,0.9582,0.9572,0.9562,0.9691,0,0,0,0,0,0.9043,0.9068,0.9157,0.9156,0.9179,0.9259,0.928,0.9329,0.9383,0.9404,0.9461,0.9511,0.9546,0.9566,0.9602,0.9602,0.9622,0.9596,0.9585,0.9576,0.9573,0.9578,0.9568,0.9676,0.9676,0.9676,0,0,0.8995,0.9055,0.9065,0.9136,0.918,0.9205,0.9276,0.9298,0.9318,0.9408,0.9431,0.9474,0.9536,0.9546,0.9554,0.9579,0.9548,0.9571,0.9563,0.9565,0.9573,0.9562,0.9553,0.9673,0.9674,0.9674,0,0,0.8921,0.8968,0.8973,0.9017,0.9083,0.9137,0.9138,0.9219,0.9252,0.9277,0.9345,0.9369,0.9426,0.9468,0.9496,0.9441,0.9491,0.945,0.9395,0.9399,0.939,0.9383,0.9364,0.9356,0.9447,0.9447,0.9447,0,0.8852,0.8893,0.8969,0.8989,0.9018,0.9103,0.9109,0.9147,0.9221,0.924,0.9268,0.9343,0.939,0.9412,0.9399,0.9419,0.9423,0.9441,0.9385,0.9379,0.9373,0.9357,0.9349,0.9442,0.9442,0.9443,0.9443,0,0.8807,0.8834,0.883,0.8902,0.8931,0.8943,0.9022,0.9042,0.909,0.914,0.9166,0.9226,0.9276,0.9285,0.9331,0.9315,0.9329,0.937,0.9419,0.9356,0.9342,0.9336,0.9434,0.9436,0.9437,0.9439,0,0,0.8665,0.8781,0.8778,0.8813,0.8894,0.8916,0.8933,0.8985,0.9001,0.905,0.9066,0.9114,0.9153,0.9186,0.9237,0.924,0.9194,0.9282,0.9284,0.9264,0.9182,0.915,0.9141,0.9228,0.9227,0.9227,0.9177,0,0.8605,0.8641,0.8711,0.8725,0.8752,0.8834,0.8849,0.8901,0.8949,0.8979,0.9033,0.9066,0.9114,0.9135,0.9142,0.9198,0.9179,0.9203,0.9245,0.9245,0.9227,0.9134,0.9101,0.905,0.9171,0.9171,0.917,0,0.8539,0.8585,0.8601,0.8683,0.8697,0.8709,0.8763,0.8791,0.8851,0.8887,0.8924,0.8981,0.9004,0.9049,0.9082,0.9097,0.9119,0.9149,0.9149,0.9155,0.9204,0.9138,0.9036,0.9028,0.9161,0.9162,0.9163,0,0.8435,0.8501,0.8521,0.8547,0.8643,0.865,0.8689,0.8752,0.8779,0.8826,0.8844,0.8892,0.8919,0.8955,0.9024,0.905,0.905,0.91,0.908,0.9078,0.9076,0.9075,0.8976,0.9089,0.9089,0.9089,0.9089,0,0.836,0.8367,0.8476,0.8487,0.8499,0.858,0.8588,0.8636,0.8691,0.8714,0.8787,0.8807,0.8897,0.8927,0.8981,0.9001,0.9012,0.9042,0.9056,0.9035,0.9032,0.905,0.9056,0.9087,0.9088,0.9088,0.9088,0,0.8246,0.8318,0.8345,0.8434,0.8457,0.8461,0.8537,0.8552,0.8606,0.8634,0.8645,0.873,0.8769,0.8842,0.8902,0.8938,0.8947,0.8972,0.8927,0.8936,0.8912,0.8913,0.8822,0.8815,0.893,0.8929,0.8928,0,0.8193,0.8201,0.8292,0.8313,0.8351,0.8383,0.8412,0.8493,0.852,0.8591,0.8597,0.8643,0.8684,0.8743,0.8809,0.8856,0.8883,0.8847,0.889,0.887,0.8883,0.8882,0.8884,0.8837,0.8836,0.8834,0.8833,0,0.8093,0.8129,0.8168,0.822,0.8253,0.8297,0.8345,0.8358,0.845,0.8477,0.8519,0.8551,0.8613,0.8658,0.8715,0.8756,0.881,0.882,0.8818,0.8797,0.8771,0.8786,0.8901,0.8821,0.8822,0.8823,0.8824,0.8824,0.8009,0.8021,0.8087,0.8129,0.8174,0.8218,0.8237,0.8294,0.8331,0.8389,0.8434,0.8473,0.8536,0.8618,0.8656,0.8688,0.8713,0.871,0.8709,0.8707,0.8699,0.8766,0.8698,0.8699,0.8699,0.8699,0.87,0,0.7914,0.7961,0.7998,0.8065,0.8098,0.8147,0.8204,0.8228,0.8262,0.8316,0.8355,0.8405,0.8449,0.852,0.857,0.8582,0.8608,0.8593,0.8593,0.8602,0.8673,0.867,0.8571,0.8571,0.8571,0.8571,0.8571,0.8571,0.7868,0.7891,0.7935,0.7982,0.803,0.8069,0.8098,0.8139,0.8183,0.8235,0.8273,0.8319,0.8381,0.8436,0.848,0.8499,0.8515,0.8491,0.8518,0.8584,0.8596,0.8608,0.8606,0.8494,0.8494,0.8445,0.8444,0.8444]}]]